Weather in Reftinsky

Russia / Sverdlovsk Oblast     57°05′28″N   61°40′27″E
temp.,
°C
wind,
m/s
gust,
m/s
humid.,
%
clouds,
%
prec.,
mm/h
press.,
hPa
HPBL,
m
8 may, sat
sat823:00+14s225281 0.0 101858
02:00+11ssw22646 0.0 101828
05:00+9sw22626 0.0 101816
08:00+15ssw224381 0.0 1018240
11:00+20ssw332639 0.0 10171707
14:00+21s3222100 0.0 10162739
17:00+21sse332286 0.0 10162742
20:00+16wnw1139100 0.0 101616
9 may, sun
sun923:00+12nnw2268100 0.0 101646
02:00+11n2370100 0.0 101747
05:00+10n227699 0.0 101725
08:00+14nne2358100 0.0 1017252
11:00+19ene2336100 0.0 1017885
14:00+22e3524100 0.0 10173022
17:00+21nne352976 0.1 10171521
20:00+17n2245100 0.0 101840
10 may, mon
mon1023:00+13nne235963 0.0 101944
02:00+11se125986 0.0 102012
05:00+11e246931 0.0 102268
08:00+16se355533 0.0 1023406
11:00+20ese33375 0.0 10231646
14:00+22e33296 0.0 10222591
17:00+22se43285 0.0 10222528
20:00+18se3741100 0.0 1023172
11 may, tue
tue1123:00+13s265045 0.0 1024102
02:00+12ssw3853100 0.0 1023156
05:00+12ssw2854100 0.0 1023191
08:00+15wnw3552100 0.0 1023282
11:00+13n1389100 0.8 1024236
14:00+17nw565398 1.6 10231740
17:00+18n373764 1.6 10232341
20:00+13n59615 0.0 1026843
12 may, wed
wed1223:00+8nw2282100 0.0 102718
02:00+8nnw258526 0.0 1028112
05:00+6nnw238216 0.0 102946
08:00+11nnw355283 0.0 1029383
11:00+16nnw463532 0.0 10271680
14:00+16nw5639100 0.0 10271366
17:00+11nnw2669100 0.1 1028407
20:00+11nnw2575100 0.1 1028475